Year,Month,Day,Hour,Minute,Value (Times are PST for temperature in C)
2015,03,21,00,00,11.00
2015,03,21,00,01,11.00
2015,03,21,00,02,11.10
2015,03,21,00,03,11.10
2015,03,21,00,04,11.10
2015,03,21,00,05,11.10
2015,03,21,00,06,11.10
2015,03,21,00,07,11.20
2015,03,21,00,08,11.20
2015,03,21,00,09,11.20
2015,03,21,00,10,11.20
2015,03,21,00,11,11.20
2015,03,21,00,12,11.20
2015,03,21,00,13,11.20
2015,03,21,00,14,11.20
2015,03,21,00,15,11.20
2015,03,21,00,16,11.20
2015,03,21,00,17,11.20
2015,03,21,00,18,11.20
2015,03,21,00,19,11.20
2015,03,21,00,20,11.10
2015,03,21,00,21,11.10
2015,03,21,00,22,11.10
2015,03,21,00,23,11.10
2015,03,21,00,24,11.10
2015,03,21,00,25,11.10
2015,03,21,00,26,11.00
2015,03,21,00,27,11.00
2015,03,21,00,28,11.00
2015,03,21,00,29,10.90
2015,03,21,00,30,10.90
2015,03,21,00,31,10.90
2015,03,21,00,32,10.80
2015,03,21,00,33,10.80
2015,03,21,00,34,10.80
2015,03,21,00,35,10.80
2015,03,21,00,36,10.80
2015,03,21,00,37,10.80
2015,03,21,00,38,10.80
2015,03,21,00,39,10.70
2015,03,21,00,40,10.70
2015,03,21,00,41,10.80
2015,03,21,00,42,10.80
2015,03,21,00,43,10.80
2015,03,21,00,44,10.80
2015,03,21,00,45,10.80
2015,03,21,00,46,10.80
2015,03,21,00,47,10.80
2015,03,21,00,48,10.80
2015,03,21,00,49,10.80
2015,03,21,00,50,10.80
2015,03,21,00,51,10.80
2015,03,21,00,52,10.80
2015,03,21,00,53,10.80
2015,03,21,00,54,10.80
2015,03,21,00,55,10.80
2015,03,21,00,56,10.80
2015,03,21,00,57,10.80
2015,03,21,00,58,10.80
2015,03,21,00,59,10.80
2015,03,21,01,00,10.80
2015,03,21,01,01,10.80
2015,03,21,01,02,10.80
2015,03,21,01,03,10.70
2015,03,21,01,04,10.70
2015,03,21,01,05,10.70
2015,03,21,01,06,10.70
2015,03,21,01,07,10.70
2015,03,21,01,08,10.70
2015,03,21,01,09,10.60
2015,03,21,01,10,10.60
2015,03,21,01,11,10.60
2015,03,21,01,12,10.60
2015,03,21,01,13,10.60
2015,03,21,01,14,10.50
2015,03,21,01,15,10.50
2015,03,21,01,16,10.50
2015,03,21,01,17,10.50
2015,03,21,01,18,10.50
2015,03,21,01,19,10.40
2015,03,21,01,20,10.40
2015,03,21,01,21,10.40
2015,03,21,01,22,10.40
2015,03,21,01,23,10.40
2015,03,21,01,24,10.40
2015,03,21,01,25,10.40
2015,03,21,01,26,10.40
2015,03,21,01,27,10.40
2015,03,21,01,28,10.40
2015,03,21,01,29,10.40
2015,03,21,01,30,10.40
2015,03,21,01,31,10.40
2015,03,21,01,32,10.40
2015,03,21,01,33,10.40
2015,03,21,01,34,10.40
2015,03,21,01,35,10.30
2015,03,21,01,36,10.30
2015,03,21,01,37,10.30
2015,03,21,01,38,10.30
2015,03,21,01,39,10.20
2015,03,21,01,40,10.10
2015,03,21,01,41,10.10
2015,03,21,01,42,10.00
2015,03,21,01,43,10.00
2015,03,21,01,44,9.90
2015,03,21,01,45,9.90
2015,03,21,01,46,9.90
2015,03,21,01,47,9.90
2015,03,21,01,48,9.90
2015,03,21,01,49,9.90
2015,03,21,01,50,9.80
2015,03,21,01,51,9.80
2015,03,21,01,52,9.80
2015,03,21,01,53,9.80
2015,03,21,01,54,9.80
2015,03,21,01,55,9.70
2015,03,21,01,56,9.70
2015,03,21,01,57,9.70
2015,03,21,01,58,9.70
2015,03,21,01,59,9.70
2015,03,21,02,00,9.70
2015,03,21,02,01,9.70
2015,03,21,02,02,9.70
2015,03,21,02,03,9.70
2015,03,21,02,04,9.70
2015,03,21,02,05,9.70
2015,03,21,02,06,9.70
2015,03,21,02,07,9.70
2015,03,21,02,08,9.70
2015,03,21,02,09,9.70
2015,03,21,02,10,9.60
2015,03,21,02,11,9.60
2015,03,21,02,12,9.60
2015,03,21,02,13,9.60
2015,03,21,02,14,9.60
2015,03,21,02,15,9.70
2015,03,21,02,16,9.70
2015,03,21,02,17,9.70
2015,03,21,02,18,9.70
2015,03,21,02,19,9.70
2015,03,21,02,20,9.70
2015,03,21,02,21,9.70
2015,03,21,02,22,9.70
2015,03,21,02,23,9.70
2015,03,21,02,24,9.70
2015,03,21,02,25,9.70
2015,03,21,02,26,9.70
2015,03,21,02,27,9.70
2015,03,21,02,28,9.70
2015,03,21,02,29,9.70
2015,03,21,02,30,9.70
2015,03,21,02,31,9.70
2015,03,21,02,32,9.70
2015,03,21,02,33,9.70
2015,03,21,02,34,9.70
2015,03,21,02,35,9.70
2015,03,21,02,36,9.70
2015,03,21,02,37,9.70
2015,03,21,02,38,9.70
2015,03,21,02,39,9.70
2015,03,21,02,40,9.70
2015,03,21,02,41,9.70
2015,03,21,02,42,9.70
2015,03,21,02,43,9.70
2015,03,21,02,44,9.70
2015,03,21,02,45,9.70
2015,03,21,02,46,9.70
2015,03,21,02,47,9.70
2015,03,21,02,48,9.70
2015,03,21,02,49,9.70
2015,03,21,02,50,9.70
2015,03,21,02,51,9.70
2015,03,21,02,52,9.70
2015,03,21,02,53,9.70
2015,03,21,02,54,9.70
2015,03,21,02,55,9.70
2015,03,21,02,56,9.70
2015,03,21,02,57,9.70
2015,03,21,02,58,9.70
2015,03,21,02,59,9.70
2015,03,21,03,00,9.70
2015,03,21,03,01,9.70
2015,03,21,03,02,9.70
2015,03,21,03,03,9.70
2015,03,21,03,04,9.70
2015,03,21,03,05,9.70
2015,03,21,03,06,9.70
2015,03,21,03,07,9.70
2015,03,21,03,08,9.70
2015,03,21,03,09,9.70
2015,03,21,03,10,9.70
2015,03,21,03,11,9.70
2015,03,21,03,12,9.70
2015,03,21,03,13,9.70
2015,03,21,03,14,9.70
2015,03,21,03,15,9.70
2015,03,21,03,16,9.70
2015,03,21,03,17,9.70
2015,03,21,03,18,9.70
2015,03,21,03,19,9.70
2015,03,21,03,20,9.70
2015,03,21,03,21,9.70
2015,03,21,03,22,9.70
2015,03,21,03,23,9.70
2015,03,21,03,24,9.70
2015,03,21,03,25,9.70
2015,03,21,03,26,9.70
2015,03,21,03,27,9.70
2015,03,21,03,28,9.70
2015,03,21,03,29,9.70
2015,03,21,03,30,9.70
2015,03,21,03,31,9.70
2015,03,21,03,32,9.70
2015,03,21,03,33,9.70
2015,03,21,03,34,9.70
2015,03,21,03,35,9.70
2015,03,21,03,36,9.70
2015,03,21,03,37,9.70
2015,03,21,03,38,9.70
2015,03,21,03,39,9.70
2015,03,21,03,40,9.70
2015,03,21,03,41,9.70
2015,03,21,03,42,9.70
2015,03,21,03,43,9.70
2015,03,21,03,44,9.70
2015,03,21,03,45,9.70
2015,03,21,03,46,9.70
2015,03,21,03,47,9.70
2015,03,21,03,48,9.70
2015,03,21,03,49,9.70
2015,03,21,03,50,9.70
2015,03,21,03,51,9.70
2015,03,21,03,52,9.70
2015,03,21,03,53,9.70
2015,03,21,03,54,9.70
2015,03,21,03,55,9.70
2015,03,21,03,56,9.60
2015,03,21,03,57,9.60
2015,03,21,03,58,9.60
2015,03,21,03,59,9.60
2015,03,21,04,00,9.60
2015,03,21,04,01,9.60
2015,03,21,04,02,9.60
2015,03,21,04,03,9.60
2015,03,21,04,04,9.60
2015,03,21,04,05,9.60
2015,03,21,04,06,9.60
2015,03,21,04,07,9.60
2015,03,21,04,08,9.60
2015,03,21,04,09,9.60
2015,03,21,04,10,9.60
2015,03,21,04,11,9.60
2015,03,21,04,12,9.50
2015,03,21,04,13,9.50
2015,03,21,04,14,9.50
2015,03,21,04,15,9.50
2015,03,21,04,16,9.50
2015,03,21,04,17,9.50
2015,03,21,04,18,9.50
2015,03,21,04,19,9.50
2015,03,21,04,20,9.50
2015,03,21,04,21,9.50
2015,03,21,04,22,9.50
2015,03,21,04,23,9.50
2015,03,21,04,24,9.50
2015,03,21,04,25,9.50
2015,03,21,04,26,9.50
2015,03,21,04,27,9.50
2015,03,21,04,28,9.50
2015,03,21,04,29,9.50
2015,03,21,04,30,9.50
2015,03,21,04,31,9.50
2015,03,21,04,32,9.40
2015,03,21,04,33,9.40
2015,03,21,04,34,9.40
2015,03,21,04,35,9.40
2015,03,21,04,36,9.40
2015,03,21,04,37,9.40
2015,03,21,04,38,9.40
2015,03,21,04,39,9.40
2015,03,21,04,40,9.40
2015,03,21,04,41,9.40
2015,03,21,04,42,9.40
2015,03,21,04,43,9.40
2015,03,21,04,44,9.40
2015,03,21,04,45,9.40
2015,03,21,04,46,9.30
2015,03,21,04,47,9.30
2015,03,21,04,48,9.30
2015,03,21,04,49,9.30
2015,03,21,04,50,9.30
2015,03,21,04,51,9.20
2015,03,21,04,52,9.20
2015,03,21,04,53,9.20
2015,03,21,04,54,9.20
2015,03,21,04,55,9.20
2015,03,21,04,56,9.20
2015,03,21,04,57,9.20
2015,03,21,04,58,9.20
2015,03,21,04,59,9.20
2015,03,21,05,00,9.20
2015,03,21,05,01,9.20
2015,03,21,05,02,9.20
2015,03,21,05,03,9.20
2015,03,21,05,04,9.20
2015,03,21,05,05,9.20
2015,03,21,05,06,9.10
2015,03,21,05,07,9.20
2015,03,21,05,08,9.10
2015,03,21,05,09,9.10
2015,03,21,05,10,9.10
2015,03,21,05,11,9.10
2015,03,21,05,12,9.10
2015,03,21,05,13,9.10
2015,03,21,05,14,9.10
2015,03,21,05,15,9.10
2015,03,21,05,16,9.10
2015,03,21,05,17,9.10
2015,03,21,05,18,9.10
2015,03,21,05,19,9.10
2015,03,21,05,20,9.10
2015,03,21,05,21,9.10
2015,03,21,05,22,9.10
2015,03,21,05,23,9.10
2015,03,21,05,24,9.10
2015,03,21,05,25,9.10
2015,03,21,05,26,9.10
2015,03,21,05,27,9.10
2015,03,21,05,28,9.10
2015,03,21,05,29,9.10
2015,03,21,05,30,9.10
2015,03,21,05,31,9.10
2015,03,21,05,32,9.10
2015,03,21,05,33,9.10
2015,03,21,05,34,9.10
2015,03,21,05,35,9.10
2015,03,21,05,36,9.00
2015,03,21,05,37,9.00
2015,03,21,05,38,9.00
2015,03,21,05,39,9.00
2015,03,21,05,40,8.90
2015,03,21,05,41,8.90
2015,03,21,05,42,8.90
2015,03,21,05,43,8.90
2015,03,21,05,44,8.90
2015,03,21,05,45,8.90
2015,03,21,05,46,8.90
2015,03,21,05,47,8.90
2015,03,21,05,48,8.80
2015,03,21,05,49,8.80
2015,03,21,05,50,8.80
2015,03,21,05,51,8.80
2015,03,21,05,52,8.80
2015,03,21,05,53,8.80
2015,03,21,05,54,8.80
2015,03,21,05,55,8.70
2015,03,21,05,56,8.70
2015,03,21,05,57,8.70
2015,03,21,05,58,8.70
2015,03,21,05,59,8.70
2015,03,21,06,00,8.70
2015,03,21,06,01,8.70
2015,03,21,06,02,8.70
2015,03,21,06,03,8.70
2015,03,21,06,04,8.70
2015,03,21,06,05,8.80
2015,03,21,06,06,8.80
2015,03,21,06,07,8.80
2015,03,21,06,08,8.80
2015,03,21,06,09,8.80
2015,03,21,06,10,8.80
2015,03,21,06,11,8.80
2015,03,21,06,12,8.80
2015,03,21,06,13,8.80
2015,03,21,06,14,8.80
2015,03,21,06,15,8.80
2015,03,21,06,16,8.90
2015,03,21,06,17,8.90
2015,03,21,06,18,8.90
2015,03,21,06,19,8.90
2015,03,21,06,20,8.90
2015,03,21,06,21,8.90
2015,03,21,06,22,8.90
2015,03,21,06,23,8.90
2015,03,21,06,24,9.00
2015,03,21,06,25,9.00
2015,03,21,06,26,9.00
2015,03,21,06,27,9.00
2015,03,21,06,28,9.00
2015,03,21,06,29,9.10
2015,03,21,06,30,9.10
2015,03,21,06,31,9.10
2015,03,21,06,32,9.10
2015,03,21,06,33,9.10
2015,03,21,06,34,9.10
2015,03,21,06,35,9.10
2015,03,21,06,36,9.20
2015,03,21,06,37,9.20
2015,03,21,06,38,9.20
2015,03,21,06,39,9.20
2015,03,21,06,40,9.20
2015,03,21,06,41,9.20
2015,03,21,06,42,9.20
2015,03,21,06,43,9.20
2015,03,21,06,44,9.30
2015,03,21,06,45,9.30
2015,03,21,06,46,9.30
2015,03,21,06,47,9.30
2015,03,21,06,48,9.30
2015,03,21,06,49,9.30
2015,03,21,06,50,9.30
2015,03,21,06,51,9.20
2015,03,21,06,52,9.20
2015,03,21,06,53,9.20
2015,03,21,06,54,9.10
2015,03,21,06,55,9.10
2015,03,21,06,56,9.10
2015,03,21,06,57,9.00
2015,03,21,06,58,9.00
2015,03,21,06,59,8.90
2015,03,21,07,00,8.90
2015,03,21,07,01,8.80
2015,03,21,07,02,8.80
2015,03,21,07,03,8.80
2015,03,21,07,04,8.80
2015,03,21,07,05,8.70
2015,03,21,07,06,8.70
2015,03,21,07,07,8.70
2015,03,21,07,08,8.70
2015,03,21,07,09,8.70
2015,03,21,07,10,8.70
2015,03,21,07,11,8.60
2015,03,21,07,12,8.60
2015,03,21,07,13,8.60
2015,03,21,07,14,8.60
2015,03,21,07,15,8.60
2015,03,21,07,16,8.60
2015,03,21,07,17,8.60
2015,03,21,07,18,8.60
2015,03,21,07,19,8.60
2015,03,21,07,20,8.60
2015,03,21,07,21,8.60
2015,03,21,07,22,8.50
2015,03,21,07,23,8.50
2015,03,21,07,24,8.50
2015,03,21,07,25,8.50
2015,03,21,07,26,8.50
2015,03,21,07,27,8.50
2015,03,21,07,28,8.50
2015,03,21,07,29,8.50
2015,03,21,07,30,8.50
2015,03,21,07,31,8.50
2015,03,21,07,32,8.40
2015,03,21,07,33,8.40
2015,03,21,07,34,8.40
2015,03,21,07,35,8.40
2015,03,21,07,36,8.40
2015,03,21,07,37,8.40
2015,03,21,07,38,8.40
2015,03,21,07,39,8.40
2015,03,21,07,40,8.40
2015,03,21,07,41,8.40
2015,03,21,07,42,8.30
2015,03,21,07,43,8.30
2015,03,21,07,44,8.30
2015,03,21,07,45,8.30
2015,03,21,07,46,8.30
2015,03,21,07,47,8.30
2015,03,21,07,48,8.30
2015,03,21,07,49,8.20
2015,03,21,07,50,8.20
2015,03,21,07,51,8.20
2015,03,21,07,52,8.20
2015,03,21,07,53,8.20
2015,03,21,07,54,8.20
2015,03,21,07,55,8.20
2015,03,21,07,56,8.20
2015,03,21,07,57,8.20
2015,03,21,07,58,8.20
2015,03,21,07,59,8.20
2015,03,21,08,00,8.20
2015,03,21,08,01,8.20
2015,03,21,08,02,8.20
2015,03,21,08,03,8.20
2015,03,21,08,04,8.20
2015,03,21,08,05,8.20
2015,03,21,08,06,8.20
2015,03,21,08,07,8.20
2015,03,21,08,08,8.20
2015,03,21,08,09,8.30
2015,03,21,08,10,8.30
2015,03,21,08,11,8.30
2015,03,21,08,12,8.30
2015,03,21,08,13,8.30
2015,03,21,08,14,8.30
2015,03,21,08,15,8.30
2015,03,21,08,16,8.30
2015,03,21,08,17,8.30
2015,03,21,08,18,8.30
2015,03,21,08,19,8.40
2015,03,21,08,20,8.40
2015,03,21,08,21,8.40
2015,03,21,08,22,8.40
2015,03,21,08,23,8.40
2015,03,21,08,24,8.40
2015,03,21,08,25,8.40
2015,03,21,08,26,8.40
2015,03,21,08,27,8.40
2015,03,21,08,28,8.40
2015,03,21,08,29,8.40
2015,03,21,08,30,8.40
2015,03,21,08,31,8.40
2015,03,21,08,32,8.40
2015,03,21,08,33,8.40
2015,03,21,08,34,8.40
2015,03,21,08,35,8.40
2015,03,21,08,36,8.40
2015,03,21,08,37,8.40
2015,03,21,08,38,8.40
2015,03,21,08,39,8.30
2015,03,21,08,40,8.30
2015,03,21,08,41,8.30
2015,03,21,08,42,8.30
2015,03,21,08,43,8.30
2015,03,21,08,44,8.30
2015,03,21,08,45,8.30
2015,03,21,08,46,8.30
2015,03,21,08,47,8.30
2015,03,21,08,48,8.30
2015,03,21,08,49,8.30
2015,03,21,08,50,8.30
2015,03,21,08,51,8.30
2015,03,21,08,52,8.30
2015,03,21,08,53,8.30
2015,03,21,08,54,8.30
2015,03,21,08,55,8.30
2015,03,21,08,56,8.30
2015,03,21,08,57,8.30
2015,03,21,08,58,8.30
2015,03,21,08,59,8.30
2015,03,21,09,00,8.30
2015,03,21,09,01,8.30
2015,03,21,09,02,8.30
2015,03,21,09,03,8.30
2015,03,21,09,04,8.30
2015,03,21,09,05,8.30
2015,03,21,09,06,8.30
2015,03,21,09,07,8.30
2015,03,21,09,08,8.30
2015,03,21,09,09,8.30
2015,03,21,09,10,8.30
2015,03,21,09,11,8.30
2015,03,21,09,12,8.30
2015,03,21,09,13,8.30
2015,03,21,09,14,8.30
2015,03,21,09,15,8.30
2015,03,21,09,16,8.30
2015,03,21,09,17,8.30
2015,03,21,09,18,8.30
2015,03,21,09,19,8.30
2015,03,21,09,20,8.30
2015,03,21,09,21,8.30
2015,03,21,09,22,8.30
2015,03,21,09,23,8.30
2015,03,21,09,24,8.30
2015,03,21,09,25,8.40
2015,03,21,09,26,8.40
2015,03,21,09,27,8.40
2015,03,21,09,28,8.40
2015,03,21,09,29,8.40
2015,03,21,09,30,8.40
2015,03,21,09,31,8.40
2015,03,21,09,32,8.40
2015,03,21,09,33,8.40
2015,03,21,09,34,8.50
2015,03,21,09,35,8.50
2015,03,21,09,36,8.60
2015,03,21,09,37,8.60
2015,03,21,09,38,8.60
2015,03,21,09,39,8.60
2015,03,21,09,40,8.60
2015,03,21,09,41,8.60
2015,03,21,09,42,8.70
2015,03,21,09,43,8.70
2015,03,21,09,44,8.70
2015,03,21,09,45,8.70
2015,03,21,09,46,8.70
2015,03,21,09,47,8.80
2015,03,21,09,48,8.80
2015,03,21,09,49,8.80
2015,03,21,09,50,8.90
2015,03,21,09,51,8.90
2015,03,21,09,52,8.90
2015,03,21,09,53,9.00
2015,03,21,09,54,9.00
2015,03,21,09,55,9.00
2015,03,21,09,56,9.00
2015,03,21,09,57,9.10
2015,03,21,09,58,9.10
2015,03,21,09,59,9.10
2015,03,21,10,00,9.10
2015,03,21,10,01,9.10
2015,03,21,10,02,9.10
2015,03,21,10,03,9.10
2015,03,21,10,04,9.10
2015,03,21,10,05,9.10
2015,03,21,10,06,9.20
2015,03,21,10,07,9.20
2015,03,21,10,08,9.20
2015,03,21,10,09,9.20
2015,03,21,10,10,9.20
2015,03,21,10,11,9.20
2015,03,21,10,12,9.10
2015,03,21,10,13,9.10
2015,03,21,10,14,9.10
2015,03,21,10,15,9.10
2015,03,21,10,16,9.10
2015,03,21,10,17,9.00
2015,03,21,10,18,9.00
2015,03,21,10,19,9.00
2015,03,21,10,20,9.10
2015,03,21,10,21,9.10
2015,03,21,10,22,9.10
2015,03,21,10,23,9.20
2015,03,21,10,24,9.20
2015,03,21,10,25,9.20
2015,03,21,10,26,9.20
2015,03,21,10,27,9.20
2015,03,21,10,28,9.10
2015,03,21,10,29,9.10
2015,03,21,10,30,9.10
2015,03,21,10,31,9.10
2015,03,21,10,32,9.10
2015,03,21,10,33,9.10
2015,03,21,10,34,9.10
2015,03,21,10,35,9.10
2015,03,21,10,36,9.20
2015,03,21,10,37,9.20
2015,03,21,10,38,9.20
2015,03,21,10,39,9.20
2015,03,21,10,40,9.20
2015,03,21,10,41,9.20
2015,03,21,10,42,9.20
2015,03,21,10,43,9.30
2015,03,21,10,44,9.30
2015,03,21,10,45,9.30
2015,03,21,10,46,9.20
2015,03,21,10,47,9.20
2015,03,21,10,48,9.10
2015,03,21,10,49,9.20
2015,03,21,10,50,9.20
2015,03,21,10,51,9.10
2015,03,21,10,52,9.10
2015,03,21,10,53,9.10
2015,03,21,10,54,9.00
2015,03,21,10,55,9.00
2015,03,21,10,56,9.00
2015,03,21,10,57,9.00
2015,03,21,10,58,9.00
2015,03,21,10,59,9.00
2015,03,21,11,00,8.90
2015,03,21,11,01,8.90
2015,03,21,11,02,8.90
2015,03,21,11,03,8.90
2015,03,21,11,04,9.00
2015,03,21,11,05,9.00
2015,03,21,11,06,9.00
2015,03,21,11,07,9.00
2015,03,21,11,08,9.10
2015,03,21,11,09,9.10
2015,03,21,11,10,9.10
2015,03,21,11,11,9.10
2015,03,21,11,12,9.10
2015,03,21,11,13,9.10
2015,03,21,11,14,9.10
2015,03,21,11,15,9.10
2015,03,21,11,16,9.20
2015,03,21,11,17,9.20
2015,03,21,11,18,9.20
2015,03,21,11,19,9.10
2015,03,21,11,20,9.20
2015,03,21,11,21,9.20
2015,03,21,11,22,9.20
2015,03,21,11,23,9.30
2015,03,21,11,24,9.30
2015,03,21,11,25,9.30
2015,03,21,11,26,9.30
2015,03,21,11,27,9.30
2015,03,21,11,28,9.20
2015,03,21,11,29,9.20
2015,03,21,11,30,9.20
2015,03,21,11,31,9.20
2015,03,21,11,32,9.20
2015,03,21,11,33,9.20
2015,03,21,11,34,9.20
2015,03,21,11,35,9.20
2015,03,21,11,36,9.20
2015,03,21,11,37,9.20
2015,03,21,11,38,9.20
2015,03,21,11,39,9.20
2015,03,21,11,40,9.20
2015,03,21,11,41,9.20
2015,03,21,11,42,9.20
2015,03,21,11,43,9.20
2015,03,21,11,44,9.20
2015,03,21,11,45,9.20
2015,03,21,11,46,9.30
2015,03,21,11,47,9.30
2015,03,21,11,48,9.40
2015,03,21,11,49,9.40
2015,03,21,11,50,9.50
2015,03,21,11,51,9.60
2015,03,21,11,52,9.60
2015,03,21,11,53,9.60
2015,03,21,11,54,9.70
2015,03,21,11,55,9.80
2015,03,21,11,56,9.80
2015,03,21,11,57,9.80
2015,03,21,11,58,9.90
2015,03,21,11,59,10.00
2015,03,21,12,00,10.10
2015,03,21,12,01,10.10
2015,03,21,12,02,10.10
2015,03,21,12,03,10.20
2015,03,21,12,04,10.20
2015,03,21,12,05,10.20
2015,03,21,12,06,10.20
2015,03,21,12,07,10.30
2015,03,21,12,08,10.30
2015,03,21,12,09,10.40
2015,03,21,12,10,10.40
2015,03,21,12,11,10.40
2015,03,21,12,12,10.40
2015,03,21,12,13,10.40
2015,03,21,12,14,10.40
2015,03,21,12,15,10.50
2015,03,21,12,16,10.50
2015,03,21,12,17,10.60
2015,03,21,12,18,10.70
2015,03,21,12,19,10.80
2015,03,21,12,20,10.80
2015,03,21,12,21,10.80
2015,03,21,12,22,10.70
2015,03,21,12,23,10.70
2015,03,21,12,24,10.70
2015,03,21,12,25,10.70
2015,03,21,12,26,10.70
2015,03,21,12,27,10.70
2015,03,21,12,28,10.70
2015,03,21,12,29,10.70
2015,03,21,12,30,10.70
2015,03,21,12,31,10.80
2015,03,21,12,32,10.80
2015,03,21,12,33,10.80
2015,03,21,12,34,10.80
2015,03,21,12,35,10.90
2015,03,21,12,36,10.90
2015,03,21,12,37,11.00
2015,03,21,12,38,11.10
2015,03,21,12,39,11.10
2015,03,21,12,40,11.10
2015,03,21,12,41,11.00
2015,03,21,12,42,11.00
2015,03,21,12,43,11.00
2015,03,21,12,44,11.00
2015,03,21,12,45,10.90
2015,03,21,12,46,10.90
2015,03,21,12,47,10.90
2015,03,21,12,48,10.90
2015,03,21,12,49,10.90
2015,03,21,12,50,10.80
2015,03,21,12,51,10.90
2015,03,21,12,52,10.90
2015,03,21,12,53,10.90
2015,03,21,12,54,10.90
2015,03,21,12,55,11.00
2015,03,21,12,56,11.00
2015,03,21,12,57,11.10
2015,03,21,12,58,11.20
2015,03,21,12,59,11.20
2015,03,21,13,00,11.20
2015,03,21,13,01,11.20
2015,03,21,13,02,11.20
2015,03,21,13,03,11.20
2015,03,21,13,04,11.30
2015,03,21,13,05,11.30
2015,03,21,13,06,11.30
2015,03,21,13,07,11.20
2015,03,21,13,08,11.20
2015,03,21,13,09,11.20
2015,03,21,13,10,11.10
2015,03,21,13,11,11.10
2015,03,21,13,12,11.10
2015,03,21,13,13,11.10
2015,03,21,13,14,11.10
2015,03,21,13,15,11.20
2015,03,21,13,16,11.20
2015,03,21,13,17,11.30
2015,03,21,13,18,11.30
2015,03,21,13,19,11.40
2015,03,21,13,20,11.40
2015,03,21,13,21,11.40
2015,03,21,13,22,11.40
2015,03,21,13,23,11.40
2015,03,21,13,24,11.40
2015,03,21,13,25,11.30
2015,03,21,13,26,11.30
2015,03,21,13,27,11.30
2015,03,21,13,28,11.30
2015,03,21,13,29,11.30
2015,03,21,13,30,11.30
2015,03,21,13,31,11.20
2015,03,21,13,32,11.30
2015,03,21,13,33,11.30
2015,03,21,13,34,11.30
2015,03,21,13,35,11.30
2015,03,21,13,36,11.30
2015,03,21,13,37,11.40
2015,03,21,13,38,11.50
2015,03,21,13,39,11.50
2015,03,21,13,40,11.40
2015,03,21,13,41,11.30
2015,03,21,13,42,11.30
2015,03,21,13,43,11.20
2015,03,21,13,44,11.20
2015,03,21,13,45,11.20
2015,03,21,13,46,11.20
2015,03,21,13,47,11.20
2015,03,21,13,48,11.20
2015,03,21,13,49,11.20
2015,03,21,13,50,11.10
2015,03,21,13,51,11.00
2015,03,21,13,52,10.80
2015,03,21,13,53,10.80
2015,03,21,13,54,10.80
2015,03,21,13,55,10.80
2015,03,21,13,56,10.70
2015,03,21,13,57,10.70
2015,03,21,13,58,10.60
2015,03,21,13,59,10.60
2015,03,21,14,00,10.60
2015,03,21,14,01,10.70
2015,03,21,14,02,10.80
2015,03,21,14,03,10.80
2015,03,21,14,04,10.90
2015,03,21,14,05,11.00
2015,03,21,14,06,11.10
2015,03,21,14,07,11.10
2015,03,21,14,08,11.10
2015,03,21,14,09,11.10
2015,03,21,14,10,11.10
2015,03,21,14,11,11.10
2015,03,21,14,12,11.00
2015,03,21,14,13,10.90
2015,03,21,14,14,10.90
2015,03,21,14,15,10.90
2015,03,21,14,16,10.90
2015,03,21,14,17,10.90
2015,03,21,14,18,10.90
2015,03,21,14,19,11.00
2015,03,21,14,20,11.00
2015,03,21,14,21,10.90
2015,03,21,14,22,10.90
2015,03,21,14,23,10.80
2015,03,21,14,24,10.90
2015,03,21,14,25,10.90
2015,03,21,14,26,11.00
2015,03,21,14,27,11.10
2015,03,21,14,28,11.10
2015,03,21,14,29,11.10
2015,03,21,14,30,11.20
2015,03,21,14,31,11.30
2015,03,21,14,32,11.40
2015,03,21,14,33,11.40
2015,03,21,14,34,11.40
2015,03,21,14,35,11.50
2015,03,21,14,36,11.50
2015,03,21,14,37,11.50
2015,03,21,14,38,11.50
2015,03,21,14,39,11.60
2015,03,21,14,40,11.60
2015,03,21,14,41,11.70
2015,03,21,14,42,11.70
2015,03,21,14,43,11.70
2015,03,21,14,44,11.80
2015,03,21,14,45,11.80
2015,03,21,14,46,11.80
2015,03,21,14,47,11.80
2015,03,21,14,48,11.80
2015,03,21,14,49,11.70
2015,03,21,14,50,11.70
2015,03,21,14,51,11.60
2015,03,21,14,52,11.60
2015,03,21,14,53,11.50
2015,03,21,14,54,11.50
2015,03,21,14,55,11.50
2015,03,21,14,56,11.60
2015,03,21,14,57,11.60
2015,03,21,14,58,11.50
2015,03,21,14,59,11.50
2015,03,21,15,00,11.50
2015,03,21,15,01,11.50
2015,03,21,15,02,11.40
2015,03,21,15,03,11.40
2015,03,21,15,04,11.40
2015,03,21,15,05,11.40
2015,03,21,15,06,11.40
2015,03,21,15,07,11.40
2015,03,21,15,08,11.50
2015,03,21,15,09,11.60
2015,03,21,15,10,11.70
2015,03,21,15,11,11.80
2015,03,21,15,12,11.80
2015,03,21,15,13,11.80
2015,03,21,15,14,11.60
2015,03,21,15,15,11.60
2015,03,21,15,16,11.70
2015,03,21,15,17,11.70
2015,03,21,15,18,11.70
2015,03,21,15,19,11.70
2015,03,21,15,20,11.80
2015,03,21,15,21,11.90
2015,03,21,15,22,11.90
2015,03,21,15,23,12.00
2015,03,21,15,24,12.10
2015,03,21,15,25,12.10
2015,03,21,15,26,12.10
2015,03,21,15,27,12.10
2015,03,21,15,28,12.10
2015,03,21,15,29,12.10
2015,03,21,15,30,12.10
2015,03,21,15,31,12.20
2015,03,21,15,32,12.20
2015,03,21,15,33,12.20
2015,03,21,15,34,12.20
2015,03,21,15,35,12.20
2015,03,21,15,36,12.30
2015,03,21,15,37,12.30
2015,03,21,15,38,12.20
2015,03,21,15,39,12.10
2015,03,21,15,40,12.00
2015,03,21,15,41,11.90
2015,03,21,15,42,11.80
2015,03,21,15,43,11.80
2015,03,21,15,44,11.80
2015,03,21,15,45,11.80
2015,03,21,15,46,11.80
2015,03,21,15,47,11.80
2015,03,21,15,48,11.80
2015,03,21,15,49,11.80
2015,03,21,15,50,11.80
2015,03,21,15,51,11.80
2015,03,21,15,52,11.80
2015,03,21,15,53,11.90
2015,03,21,15,54,12.00
2015,03,21,15,55,12.00
2015,03,21,15,56,12.00
2015,03,21,15,57,12.00
2015,03,21,15,58,12.00
2015,03,21,15,59,12.00
2015,03,21,16,00,12.10
2015,03,21,16,01,12.00
2015,03,21,16,02,12.00
2015,03,21,16,03,11.90
2015,03,21,16,04,11.80
2015,03,21,16,05,11.70
2015,03,21,16,06,11.70
2015,03,21,16,07,11.70
2015,03,21,16,08,11.70
2015,03,21,16,09,11.70
2015,03,21,16,10,11.70
2015,03,21,16,11,11.70
2015,03,21,16,12,11.80
2015,03,21,16,13,11.80
2015,03,21,16,14,11.80
2015,03,21,16,15,11.80
2015,03,21,16,16,11.80
2015,03,21,16,17,11.80
2015,03,21,16,18,11.80
2015,03,21,16,19,11.70
2015,03,21,16,20,11.80
2015,03,21,16,21,11.80
2015,03,21,16,22,11.80
2015,03,21,16,23,11.80
2015,03,21,16,24,11.90
2015,03,21,16,25,11.90
2015,03,21,16,26,11.80
2015,03,21,16,27,11.80
2015,03,21,16,28,11.80
2015,03,21,16,29,11.80
2015,03,21,16,30,11.70
2015,03,21,16,31,11.70
2015,03,21,16,32,11.60
2015,03,21,16,33,11.60
2015,03,21,16,34,11.60
2015,03,21,16,35,11.60
2015,03,21,16,36,11.70
2015,03,21,16,37,11.70
2015,03,21,16,38,11.80
2015,03,21,16,39,11.80
2015,03,21,16,40,11.70
2015,03,21,16,41,11.60
2015,03,21,16,42,11.60
2015,03,21,16,43,11.50
2015,03,21,16,44,11.50
2015,03,21,16,45,11.50
2015,03,21,16,46,11.50
2015,03,21,16,47,11.50
2015,03,21,16,48,11.50
2015,03,21,16,49,11.40
2015,03,21,16,50,11.40
2015,03,21,16,51,11.40
2015,03,21,16,52,11.40
2015,03,21,16,53,11.40
2015,03,21,16,54,11.40
2015,03,21,16,55,11.50
2015,03,21,16,56,11.50
2015,03,21,16,57,11.50
2015,03,21,16,58,11.60
2015,03,21,16,59,11.60
2015,03,21,17,00,11.70
2015,03,21,17,01,11.70
2015,03,21,17,02,11.70
2015,03,21,17,03,11.70
2015,03,21,17,04,11.70
2015,03,21,17,05,11.70
2015,03,21,17,06,11.70
2015,03,21,17,07,11.70
2015,03,21,17,08,11.70
2015,03,21,17,09,11.60
2015,03,21,17,10,11.70
2015,03,21,17,11,11.70
2015,03,21,17,12,11.70
2015,03,21,17,13,11.70
2015,03,21,17,14,11.70
2015,03,21,17,15,11.70
2015,03,21,17,16,11.70
2015,03,21,17,17,11.70
2015,03,21,17,18,11.80
2015,03,21,17,19,11.80
2015,03,21,17,20,11.90
2015,03,21,17,21,11.90
2015,03,21,17,22,11.90
2015,03,21,17,23,11.80
2015,03,21,17,24,11.80
2015,03,21,17,25,11.70
2015,03,21,17,26,11.70
2015,03,21,17,27,11.70
2015,03,21,17,28,11.60
2015,03,21,17,29,11.60
2015,03,21,17,30,11.60
2015,03,21,17,31,11.50
2015,03,21,17,32,11.50
2015,03,21,17,33,11.40
2015,03,21,17,34,11.40
2015,03,21,17,35,11.50
2015,03,21,17,36,11.50
2015,03,21,17,37,11.50
2015,03,21,17,38,11.50
2015,03,21,17,39,11.50
2015,03,21,17,40,11.50
2015,03,21,17,41,11.40
2015,03,21,17,42,11.40
2015,03,21,17,43,11.40
2015,03,21,17,44,11.40
2015,03,21,17,45,11.40
2015,03,21,17,46,11.30